Time,TemperatureF,DewpointF,PressureIn,WindDirection,WindDirectionDegrees,WindSpeedMPH,WindSpeedGustMPH,Humidity,HourlyPrecipIn,Conditions,Clouds,dailyrainin,SoftwareType,DateUTC
2013-06-28 07:53:00,69.0,68.0,29.61,South,191,8.0,13.0,97,-99.99,,,-99.99,,2013-06-28 11:53:00,
2013-06-28 08:02:00,69.0,68.0,29.61,SSE,150,7.0,12.0,97,-99.99,,,-99.99,,2013-06-28 12:02:00,
2013-06-28 08:12:00,69.0,68.0,29.61,SSE,150,7.0,12.0,97,-99.99,,,-99.99,,2013-06-28 12:12:00,
2013-06-28 08:22:00,69.0,68.0,29.61,SSW,196,5.0,12.0,97,-99.99,,,-99.99,,2013-06-28 12:22:00,
2013-06-28 08:34:00,68.0,67.0,29.61,SW,228,2.0,10.0,97,-99.99,,,-99.99,,2013-06-28 12:34:00,
2013-06-28 08:43:00,68.0,67.0,29.61,SW,228,2.0,10.0,97,-99.99,,,-99.99,,2013-06-28 12:43:00,
2013-06-28 08:52:00,68.0,67.0,29.61,SSW,202,3.0,15.0,97,0.07,,,-99.99,,2013-06-28 12:52:00,
2013-06-28 09:01:00,68.0,67.0,29.61,SSW,200,4.0,14.0,97,0.07,,,-99.99,,2013-06-28 13:01:00,
2013-06-28 09:11:00,68.0,67.0,29.61,SSW,200,4.0,14.0,97,0.07,,,-99.99,,2013-06-28 13:11:00,
2013-06-28 09:33:00,68.0,67.0,29.60,South,184,7.0,15.0,97,0.06,,,-99.99,,2013-06-28 13:33:00,
2013-06-28 09:43:00,67.0,66.0,29.60,SSE,165,6.0,16.0,97,0.01,,,-99.99,,2013-06-28 13:43:00,
2013-06-28 09:53:00,68.0,67.0,29.59,SSW,201,5.0,13.0,97,0.01,,,-99.99,,2013-06-28 13:53:00,
2013-06-28 10:02:00,68.0,67.0,29.59,SSW,201,5.0,13.0,97,0.01,,,-99.99,,2013-06-28 14:02:00,
2013-06-28 10:12:00,68.0,67.0,29.59,South,175,2.0,15.0,97,0.01,,,-99.99,,2013-06-28 14:12:00,
2013-06-28 10:44:00,68.0,67.0,29.59,South,179,6.0,13.0,97,0.01,,,-99.99,,2013-06-28 14:44:00,
2013-06-28 10:53:00,68.0,67.0,29.58,SSW,202,9.0,16.0,97,0.03,,,-99.99,,2013-06-28 14:53:00,
2013-06-28 11:11:00,68.0,67.0,29.59,South,186,4.0,16.0,97,0.09,,,-99.99,,2013-06-28 15:11:00,
2013-06-28 11:24:00,68.0,67.0,29.58,SSW,207,2.0,11.0,97,0.09,,,-99.99,,2013-06-28 15:24:00,
2013-06-28 11:34:00,68.0,67.0,29.58,SSW,207,2.0,11.0,97,0.09,,,-99.99,,2013-06-28 15:34:00,
2013-06-28 11:43:00,68.0,67.0,29.59,South,178,6.0,14.0,97,0.09,,,-99.99,,2013-06-28 15:43:00,
2013-06-28 11:52:00,68.0,67.0,29.59,SSW,198,2.0,12.0,97,0.06,,,-99.99,,2013-06-28 15:52:00,
2013-06-28 12:02:00,68.0,67.0,29.59,SSW,198,2.0,12.0,97,0.06,,,-99.99,,2013-06-28 16:02:00,
2013-06-28 12:11:00,68.0,67.0,29.59,SSW,200,6.0,16.0,97,0.00,,,-99.99,,2013-06-28 16:11:00,
2013-06-28 12:25:00,69.0,68.0,29.58,SSW,211,7.0,16.0,97,0.00,,,-99.99,,2013-06-28 16:25:00,
2013-06-28 12:33:00,69.0,68.0,29.58,SSW,211,7.0,16.0,97,0.00,,,-99.99,,2013-06-28 16:33:00,
2013-06-28 12:44:00,69.0,68.0,29.58,South,177,5.0,16.0,97,0.00,,,-99.99,,2013-06-28 16:44:00,
2013-06-28 12:53:00,68.0,67.0,29.58,ESE,111,1.0,13.0,97,0.00,,,-99.99,,2013-06-28 16:53:00,
2013-06-28 13:11:00,69.0,68.0,29.58,SSW,211,5.0,13.0,97,0.00,,,-99.99,,2013-06-28 17:11:00,
2013-06-28 13:22:00,69.0,68.0,29.58,SSW,200,4.0,11.0,97,0.00,,,-99.99,,2013-06-28 17:22:00,
2013-06-28 13:33:00,69.0,68.0,29.58,SSW,192,4.0,14.0,97,0.00,,,-99.99,,2013-06-28 17:33:00,
2013-06-28 13:44:00,69.0,68.0,29.58,SSW,192,4.0,14.0,97,0.00,,,-99.99,,2013-06-28 17:44:00,
2013-06-28 13:52:00,69.0,68.0,29.58,South,189,4.0,14.0,97,0.00,,,-99.99,,2013-06-28 17:52:00,
2013-06-28 14:02:00,69.0,68.0,29.58,South,189,4.0,14.0,97,0.00,,,-99.99,,2013-06-28 18:02:00,
2013-06-28 14:12:00,69.0,68.0,29.58,South,187,1.0,14.0,98,0.00,,,-99.99,,2013-06-28 18:12:00,
2013-06-28 14:22:00,70.0,69.0,29.57,South,184,3.0,12.0,98,0.00,,,-99.99,,2013-06-28 18:22:00,
2013-06-28 14:33:00,70.0,69.0,29.57,South,184,3.0,12.0,98,0.00,,,-99.99,,2013-06-28 18:33:00,
2013-06-28 14:43:00,70.0,69.0,29.58,SSW,196,2.0,11.0,98,0.00,,,-99.99,,2013-06-28 18:43:00,
2013-06-28 14:52:00,70.0,69.0,29.57,SSW,192,1.0,9.0,98,0.00,,,-99.99,,2013-06-28 18:52:00,
2013-06-28 15:11:00,70.0,69.0,29.57,SSE,155,1.0,11.0,97,0.00,,,-99.99,,2013-06-28 19:11:00,
2013-06-28 15:33:00,70.0,69.0,29.57,SSW,202,0.0,10.0,97,0.00,,,-99.99,,2013-06-28 19:33:00,
2013-06-28 15:43:00,70.0,69.0,29.57,South,186,5.0,11.0,97,0.00,,,-99.99,,2013-06-28 19:43:00,
2013-06-28 15:53:00,70.0,69.0,29.57,SSE,163,2.0,16.0,97,0.00,,,-99.99,,2013-06-28 19:53:00,
2013-06-28 16:02:00,70.0,69.0,29.57,SSW,205,3.0,15.0,97,0.00,,,-99.99,,2013-06-28 20:02:00,
2013-06-28 16:11:00,70.0,69.0,29.57,SSW,205,3.0,15.0,97,0.00,,,-99.99,,2013-06-28 20:11:00,
2013-06-28 16:22:00,70.0,69.0,29.57,SSW,205,0.0,13.0,96,0.00,,,-99.99,,2013-06-28 20:22:00,
2013-06-28 16:33:00,70.0,69.0,29.57,SSW,205,0.0,13.0,96,0.00,,,-99.99,,2013-06-28 20:33:00,
2013-06-28 16:43:00,70.0,69.0,29.57,South,178,2.0,13.0,96,0.00,,,-99.99,,2013-06-28 20:43:00,
2013-06-28 16:52:00,70.0,69.0,29.57,SSW,200,2.0,13.0,96,0.00,,,-99.99,,2013-06-28 20:52:00,
2013-06-28 17:02:00,70.0,69.0,29.57,SSW,200,2.0,13.0,96,0.00,,,-99.99,,2013-06-28 21:02:00,
2013-06-28 17:11:00,70.0,68.0,29.57,SSW,204,1.0,6.0,95,0.00,,,-99.99,,2013-06-28 21:11:00,
2013-06-28 17:23:00,70.0,69.0,29.57,SE,146,2.0,12.0,96,0.00,,,-99.99,,2013-06-28 21:23:00,
2013-06-28 17:34:00,69.0,68.0,29.57,SSW,197,3.0,13.0,95,0.00,,,-99.99,,2013-06-28 21:34:00,
2013-06-28 17:43:00,69.0,68.0,29.57,SSW,197,3.0,13.0,95,0.00,,,-99.99,,2013-06-28 21:43:00,
2013-06-28 17:53:00,69.0,68.0,29.57,South,188,0.0,10.0,96,0.00,,,-99.99,,2013-06-28 21:53:00,
2013-06-28 18:01:00,69.0,68.0,29.57,South,188,0.0,10.0,96,0.00,,,-99.99,,2013-06-28 22:01:00,
2013-06-28 18:11:00,69.0,68.0,29.57,SW,219,1.0,13.0,96,0.00,,,-99.99,,2013-06-28 22:11:00,
2013-06-28 18:22:00,69.0,68.0,29.57,SSW,192,1.0,16.0,96,0.00,,,-99.99,,2013-06-28 22:22:00,
2013-06-28 18:34:00,69.0,68.0,29.57,SSW,198,2.0,9.0,96,0.00,,,-99.99,,2013-06-28 22:34:00,
2013-06-28 18:43:00,69.0,68.0,29.57,SSW,198,2.0,9.0,96,0.00,,,-99.99,,2013-06-28 22:43:00,
2013-06-28 18:53:00,69.0,68.0,29.56,SSW,196,1.0,11.0,96,0.00,,,-99.99,,2013-06-28 22:53:00,
2013-06-28 19:02:00,69.0,68.0,29.56,SSW,196,1.0,11.0,96,0.00,,,-99.99,,2013-06-28 23:02:00,
2013-06-28 19:11:00,69.0,68.0,29.56,SSW,196,1.0,11.0,96,0.00,,,-99.99,,2013-06-28 23:11:00,
2013-06-28 19:23:00,69.0,68.0,29.57,SSW,202,2.0,10.0,96,0.00,,,-99.99,,2013-06-28 23:23:00,
2013-06-28 19:34:00,69.0,68.0,29.57,SSW,198,3.0,10.0,96,0.00,,,-99.99,,2013-06-28 23:34:00,
2013-06-28 19:43:00,69.0,68.0,29.57,SSW,198,3.0,10.0,96,0.00,,,-99.99,,2013-06-28 23:43:00,
2013-06-28 19:53:00,68.0,67.0,29.58,South,188,1.0,15.0,97,0.00,,,-99.99,,2013-06-28 23:53:00,
2013-06-28 20:02:00,68.0,67.0,29.58,SSW,198,2.0,11.0,96,-99.99,,,-99.99,,2013-06-29 00:02:00,
2013-06-28 20:12:00,68.0,67.0,29.58,SSW,198,2.0,11.0,96,-99.99,,,-99.99,,2013-06-29 00:12:00,
2013-06-28 20:23:00,68.0,67.0,29.59,SSW,205,5.0,11.0,97,-99.99,,,-99.99,,2013-06-29 00:23:00,
2013-06-28 20:33:00,68.0,67.0,29.59,SSW,205,5.0,11.0,97,-99.99,,,-99.99,,2013-06-29 00:33:00,
2013-06-28 20:42:00,68.0,67.0,29.58,South,186,6.0,11.0,97,-99.99,,,-99.99,,2013-06-29 00:42:00,
2013-06-28 20:52:00,68.0,67.0,29.58,South,186,6.0,11.0,97,-99.99,,,-99.99,,2013-06-29 00:52:00,
2013-06-28 21:01:00,68.0,67.0,29.58,South,186,6.0,11.0,97,-99.99,,,-99.99,,2013-06-29 01:01:00,
2013-06-28 21:11:00,68.0,67.0,29.58,South,186,6.0,11.0,97,-99.99,,,-99.99,,2013-06-29 01:11:00,
2013-06-28 21:22:00,68.0,67.0,29.58,South,186,6.0,11.0,97,-99.99,,,-99.99,,2013-06-29 01:22:00,